Change the Weather History Date:

Saturday, October 26, 2013

  Actual Average Record
Temperature  
Mean Temperature 65 °F -  
Max Temperature 73 °F 56 °F 76 °F (2014)
Min Temperature 57 °F 41 °F 33 °F (2010)
Growing Degree Days 15 (Base 50)    
Moisture  
Dew Point 58 °F    
Average Humidity 82    
Maximum Humidity 94    
Minimum Humidity 61    
Precipitation  
Precipitation 0.00 in - - ()
Sea Level Pressure  
Sea Level Pressure 30.00 in    
Wind  
Wind Speed 5 mph ()    
Max Wind Speed 28 mph    
Max Gust Speed 41 mph    
Visibility 6.0 miles    
Events Rain , Thunderstorm    
Averages and records for this station are not official NWS values.
T = Trace of Precipitation, MM = Missing Value Source: Averaged Metar Reports

Daily Weather History Graph

Daily Weather History Graph

Search for Another Location

Airport or City:

Trip Planner

Search our weather history database for the weather conditions in past years. The results will help you decide how hot, cold, wet, or windy it might be!

Date:

Astronomy

Oct. 26, 2013 Rise Set
Actual Time 8:29 AM CEST 7:01 PM CEST
Civil Twilight 7:59 AM CEST 7:30 PM CEST
Nautical Twilight 7:26 AM CEST 8:04 PM CEST
Astronomical Twilight 6:53 AM CEST 8:37 PM CEST
Moon 12:05 AM CEST (10/26) 2:38 PM CEST (10/26)
Length of Visible Light 11h 30m
Length of Day
10h 32m
Waning Gibbous, 55% of the Moon is Illuminated
Oct 26
Waning Gibbous
Oct 27
Last Quarter
Nov 3
New
Nov 10
First Quarter
Nov 17
Full

Hourly Weather History & Observations

Time (CEST) Temp. Dew Point Humidity Pressure Visibility Wind Dir Wind Speed Gust Speed Precip Events Conditions
12:00 AM 60.8 °F 59.0 °F 94% 29.89 in 6.2 mi NE 4.6 mph - N/A   Unknown
12:30 AM 60.8 °F 59.0 °F 94% 29.89 in 5.0 mi Variable 2.3 mph - N/A   Unknown
1:00 AM 60.8 °F 59.0 °F 94% 29.92 in 5.0 mi SW 3.5 mph - N/A   Unknown
1:30 AM 62.6 °F 59.0 °F 88% 29.98 in 1.8 mi West 27.6 mph 41.4 mph N/A Rain , Thunderstorm Heavy Rain
2:00 AM 60.8 °F 55.4 °F 82% 30.01 in 6.2 mi West 11.5 mph 23.0 mph N/A Rain Rain
2:30 AM 60.8 °F 57.2 °F 88% 29.92 in 6.2 mi NE 8.1 mph - N/A   Mostly Cloudy
3:00 AM 59.0 °F 55.4 °F 88% 29.92 in 6.2 mi East 3.5 mph - N/A   Unknown
3:30 AM 59.0 °F 55.4 °F 88% 29.95 in 6.2 mi SSE 6.9 mph - N/A   Unknown
4:00 AM 59.0 °F 55.4 °F 88% 29.95 in 6.2 mi SE 9.2 mph - N/A   Scattered Clouds
4:30 AM 59.0 °F 55.4 °F 88% 29.95 in 6.2 mi East 4.6 mph - N/A   Unknown
5:00 AM 59.0 °F 55.4 °F 88% 29.95 in 6.2 mi ESE 3.5 mph - N/A   Mostly Cloudy
5:30 AM 59.0 °F 57.2 °F 94% 29.95 in 6.2 mi SE 3.5 mph - N/A   Overcast
6:00 AM 59.0 °F 57.2 °F 94% 29.98 in 6.2 mi South 4.6 mph - N/A   Overcast
6:30 AM 59.0 °F 55.4 °F 88% 29.98 in 6.2 mi Variable 3.5 mph - N/A   Mostly Cloudy
7:00 AM 57.2 °F 55.4 °F 94% 29.98 in 6.2 mi Variable 1.2 mph - N/A   Scattered Clouds
7:30 AM 60.8 °F 57.2 °F 88% 29.98 in 6.2 mi Variable 4.6 mph - N/A   Scattered Clouds
8:00 AM 59.0 °F 57.2 °F 94% 29.95 in 6.2 mi SE 6.9 mph - N/A   Scattered Clouds
8:30 AM 60.8 °F 57.2 °F 88% 29.98 in 6.2 mi SSE 6.9 mph - N/A   Partly Cloudy
9:00 AM 59.0 °F 55.4 °F 88% 29.98 in 6.2 mi SE 5.8 mph - N/A   Partly Cloudy
9:30 AM 59.0 °F 57.2 °F 94% 30.01 in 6.2 mi East 3.5 mph - N/A   Scattered Clouds
10:00 AM 62.6 °F 57.2 °F 82% 30.01 in 6.2 mi Variable 3.5 mph - N/A   Scattered Clouds
10:30 AM 64.4 °F 59.0 °F 83% 29.98 in 6.2 mi ENE 5.8 mph - N/A   Scattered Clouds
11:00 AM 68.0 °F 59.0 °F 73% 30.01 in 6.2 mi Variable 3.5 mph - N/A   Scattered Clouds
11:30 AM 68.0 °F 59.0 °F 73% 30.04 in 6.2 mi NNE 1.2 mph - N/A   Scattered Clouds
12:00 PM 69.8 °F 60.8 °F 73% 30.04 in - WNW 5.8 mph - N/A   Clear
12:30 PM 71.6 °F 60.8 °F 69% 30.04 in - NW 4.6 mph - N/A   Clear
1:00 PM 71.6 °F 59.0 °F 64% 30.04 in - NNW 9.2 mph - N/A   Clear
1:30 PM 71.6 °F 60.8 °F 69% 30.04 in - NNW 6.9 mph - N/A   Clear
2:00 PM 73.4 °F 60.8 °F 65% 30.01 in 6.2 mi North 5.8 mph - N/A   Scattered Clouds
2:30 PM 71.6 °F 60.8 °F 69% 30.04 in 6.2 mi NNW 6.9 mph - N/A   Scattered Clouds
3:00 PM 71.6 °F 60.8 °F 69% 30.01 in 6.2 mi NNW 5.8 mph - N/A   Scattered Clouds
3:30 PM 73.4 °F 60.8 °F 65% 30.01 in 6.2 mi North 6.9 mph - N/A   Mostly Cloudy
4:00 PM 73.4 °F 59.0 °F 61% 30.04 in 6.2 mi North 6.9 mph - N/A   Mostly Cloudy
4:30 PM 71.6 °F 60.8 °F 69% 30.04 in 6.2 mi NNW 6.9 mph - N/A   Mostly Cloudy
5:00 PM 69.8 °F 60.8 °F 73% 30.04 in 6.2 mi NNW 8.1 mph - N/A   Mostly Cloudy
5:30 PM 69.8 °F 60.8 °F 73% 30.04 in 6.2 mi NNW 5.8 mph - N/A   Mostly Cloudy
6:00 PM 69.8 °F 59.0 °F 68% 30.04 in - NNW 6.9 mph - N/A   Clear
6:30 PM 66.2 °F 57.2 °F 73% 30.04 in - North 6.9 mph - N/A   Clear
7:00 PM 64.4 °F 57.2 °F 77% 30.04 in 6.2 mi North 5.8 mph - N/A   Mostly Cloudy
7:30 PM 64.4 °F 55.4 °F 73% 30.04 in 6.2 mi Variable 1.2 mph - N/A   Unknown
8:00 PM 62.6 °F 57.2 °F 82% 30.06 in 6.2 mi West 4.6 mph - N/A Rain Light Rain
8:30 PM 62.6 °F 57.2 °F 82% 30.06 in 6.2 mi Variable 2.3 mph - N/A Rain Light Rain
9:00 PM 60.8 °F 57.2 °F 88% 30.06 in 6.2 mi WNW 3.5 mph - N/A   Mostly Cloudy
9:30 PM 59.0 °F 57.2 °F 94% 30.06 in 6.2 mi WNW 5.8 mph - N/A   Unknown
10:00 PM 60.8 °F 57.2 °F 88% 30.09 in 6.2 mi Calm Calm - N/A   Overcast
10:30 PM 59.0 °F 57.2 °F 94% 30.06 in 6.2 mi Calm Calm - N/A   Overcast
11:00 PM 60.8 °F 57.2 °F 88% 30.06 in 6.2 mi SSE 5.8 mph - N/A   Mostly Cloudy
11:30 PM 59.0 °F 55.4 °F 88% 30.06 in 6.2 mi SE 2.3 mph - N/A   Unknown